GW1539 Weather Reports


time (UTC)temp
C
wind
direction
speed
KPH
gust
KPH
rain 1hr
cm
rain 24hr
cm
rain mn
cm
humidity
%
barometer
mb
20260902030037 12 252 0.0 0.0 0.00 0.00 0.00 95 1019.0
20260902024528 12 252 0.0 0.0 0.00 0.00 0.00 94 1019.1
20260902021544 12 252 0.0 0.0 0.00 0.00 0.00 95 1019.0
20260902020039 12 252 0.0 0.0 0.00 0.00 0.00 94 1019.1
20260902013039 13 252 0.0 0.0 0.00 0.00 0.00 94 1019.1
20260902010035 13 252 0.0 1.6 0.00 0.00 0.00 94 1019.2
20260902004527 13 252 0.0 0.0 0.00 0.00 0.00 94 1019.3
20260902001536 13 252 0.0 0.0 0.00 0.00 0.00 94 1019.4
20260901234549 13 252 0.0 0.0 0.00 0.00 0.00 93 1019.4
20260901231548 13 252 0.0 0.0 0.00 0.00 0.00 93 1019.3
20260901230042 13 253 0.0 0.0 0.00 0.00 0.00 93 1019.3
20260901223047 13 252 0.0 0.0 0.00 0.00 0.00 92 1019.3
20260901220134 13 253 0.0 0.0 0.00 0.00 0.00 91 1019.3
20260901214543 14 253 0.0 0.0 0.00 0.00 0.00 91 1019.2
20260901213038 14 253 0.0 0.0 0.00 0.00 0.00 91 1019.2
20260901210031 14 253 0.0 0.0 0.00 0.00 0.00 91 1019.1
20260901203036 15 253 0.0 0.0 0.00 0.00 0.00 90 1019.0
20260901200042 15 252 0.0 0.0 0.00 0.00 0.00 89 1019.1
20260901194526 15 253 0.0 0.0 0.00 0.00 0.00 89 1018.8
20260901191538 16 253 0.0 0.0 0.00 0.00 0.00 87 1018.7
20260901190048 16 252 0.0 0.0 0.00 0.00 0.00 86 1018.5
20260901184533 16 253 0.0 0.0 0.00 0.00 0.00 85 1018.4
20260901181546 17 252 0.0 0.0 0.00 0.00 0.00 81 1018.1
20260901180033 18 252 0.0 1.6 0.00 0.00 0.00 80 1017.9
20260901173032 18 253 0.0 1.6 0.00 0.00 0.00 80 1017.6
20260901171535 19 253 0.0 1.6 0.00 0.00 0.00 79 1017.5
20260901164537 21 253 0.0 4.8 0.00 0.00 0.00 74 1017.7
20260901163032 21 253 0.0 4.8 0.00 0.00 0.00 73 1017.8
20260901161530 21 253 1.6 6.4 0.00 0.00 0.00 67 1017.5
20260901154551 21 246 1.6 8.0 0.00 0.00 0.00 68 1017.8
20260901151543 21 238 4.8 8.0 0.00 0.00 0.00 68 1017.8
20260901150037 21 247 1.6 8.0 0.00 0.00 0.00 68 1017.7
20260901143037 22 242 3.2 11.3 0.00 0.00 0.00 65 1017.6
20260901141534 22 270 6.4 12.9 0.00 0.00 0.00 64 1017.7
20260901140025 21 244 4.8 11.3 0.00 0.00 0.00 68 1017.7
20260901133042 22 330 1.6 12.9 0.00 0.00 0.00 65 1017.7
20260901131524 22 245 3.2 9.7 0.00 0.00 0.00 65 1017.9
20260901124533 23 259 3.2 9.7 0.00 0.00 0.00 61 1018.1
20260901123035 23 250 3.2 8.0 0.00 0.00 0.00 60 1018.1
20260901121523 22 244 1.6 6.4 0.00 0.00 0.00 62 1018.3
20260901114531 22 251 3.2 12.9 0.00 0.00 0.00 62 1018.4
20260901113029 22 236 1.6 11.3 0.00 0.00 0.00 65 1018.4
20260901110034 22 320 1.6 6.4 0.00 0.00 0.00 61 1018.5
20260901104533 22 221 0.0 12.9 0.00 0.00 0.00 62 1018.5
20260901101545 21 249 4.8 11.3 0.00 0.00 0.00 61 1018.6
20260901094536 21 279 3.2 11.3 0.00 0.00 0.00 66 1018.8
20260901091535 20 255 3.2 6.4 0.00 0.00 0.00 72 1018.8
20260901084531 19 244 3.2 11.3 0.00 0.00 0.00 73 1018.7
20260901083028 20 236 0.0 8.0 0.00 0.00 0.00 72 1018.6
20260901081529 20 247 0.0 11.3 0.00 0.00 0.00 73 1018.4
20260901074530 19 254 0.0 8.0 0.00 0.00 0.00 73 1018.3
20260901073034 19 267 0.0 0.0 0.00 0.00 0.00 80 1018.1
20260901070046 17 267 0.0 0.0 0.00 0.00 0.00 86 1018.2
20260901063034 16 267 0.0 0.0 0.00 0.00 0.00 91 1018.2
20260901061524 16 267 0.0 0.0 0.00 0.00 0.00 94 1018.1
20260901054533 15 267 0.0 0.0 0.00 0.00 0.00 95 1017.9
20260901051540 13 267 0.0 0.0 0.00 0.00 0.00 95 1017.6
20260901050034 13 267 0.0 0.0 0.00 0.00 0.00 95 1017.6
20260901043032 12 267 0.0 0.0 0.00 0.00 0.00 95 1017.3
20260901040054 12 267 0.0 1.6 0.00 0.00 0.00 94 1017.0
20260901034538 12 267 0.0 0.0 0.00 0.00 0.00 94 1017.1
20260901031539 12 267 0.0 0.0 0.00 0.00 0.00 94 1017.1